Petersburg, AK

1:27 PM AKDT on May 21, 2018 (GMT -0800)
Johnson Petersburg

Weather History for PAPG - November, 2010

Change the Weather History Date:

Saturday, November 6, 2010

  Actual Average Record
Temperature  
Mean Temperature 44 °F -  
Max Temperature 46 °F 40 °F 55 °F (2002)
Min Temperature 42 °F 32 °F 21 °F (2003)
Degree Days  
Heating Degree Days 21    
Moisture  
Dew Point 33 °F    
Average Humidity 63    
Maximum Humidity 76    
Minimum Humidity 53    
Precipitation  
Precipitation 0.00 in - - ()
Sea Level Pressure  
Sea Level Pressure 29.41 in    
Wind  
Wind Speed 9 mph (NNE)    
Max Wind Speed 15 mph    
Max Gust Speed 26 mph    
Visibility 10 miles    
Events      
Averages and records for this station are not official NWS values.
T = Trace of Precipitation, MM = Missing Value Source: NWS Daily Summary

Daily Weather History Graph

Daily Weather History Graph

Search for Another Location

Airport or City:

Astronomy

Nov. 06, 2010 Rise Set
Actual Time 8:12 AM AKDT 4:57 PM AKDT
Civil Twilight 7:31 AM AKDT 5:38 PM AKDT
Nautical Twilight 6:45 AM AKDT 6:24 PM AKDT
Astronomical Twilight 6:01 AM AKDT 7:08 PM AKDT
Moon 9:26 AM AKDT (11/6) 4:40 PM AKDT (11/6)
Length of Visible Light 10h 07m
Length of Day
8h 44m
New Moon, 1% of the Moon is Illuminated
Nov 6
New Moon
Nov 13
First Quarter
Nov 21
Full
Nov 28
Last Quarter
Dec 5
New

Hourly Weather History & Observations

Time (AKDT) Temp. Windchill Dew Point Humidity Pressure Visibility Wind Dir Wind Speed Gust Speed Precip Events Conditions
12:16 AM 44.6 °F 40.7 °F 30.2 °F 57% 29.53 in 10.0 mi NNE 6.9 mph - N/A   Overcast
12:36 AM 44.6 °F 38.1 °F 28.4 °F 53% 29.53 in 10.0 mi NNE 13.8 mph 23.0 mph N/A   Overcast
12:56 AM 44.6 °F 40.7 °F 30.2 °F 57% 29.53 in 10.0 mi NNE 6.9 mph 16.1 mph N/A   Overcast
1:16 AM 44.6 °F 37.8 °F 30.2 °F 57% 29.52 in 10.0 mi NNE 15.0 mph 26.5 mph N/A   Overcast
1:36 AM 42.8 °F 37.5 °F 33.8 °F 70% 29.52 in 10.0 mi NE 9.2 mph 25.3 mph N/A   Overcast
1:56 AM 42.8 °F 38.0 °F 33.8 °F 70% 29.51 in 10.0 mi NNE 8.1 mph 19.6 mph N/A   Overcast
2:16 AM 42.8 °F 38.0 °F 33.8 °F 70% 29.50 in 10.0 mi NNE 8.1 mph 16.1 mph N/A   Overcast
2:36 AM 42.8 °F 38.0 °F 33.8 °F 70% 29.49 in 10.0 mi NNE 8.1 mph - N/A   Overcast
2:56 AM 44.6 °F 39.7 °F 32.0 °F 61% 29.49 in 10.0 mi NNE 9.2 mph 17.3 mph N/A   Overcast
3:16 AM 44.6 °F 39.2 °F 32.0 °F 61% 29.48 in 10.0 mi NNE 10.4 mph 18.4 mph N/A   Mostly Cloudy
3:36 AM 42.8 °F 38.6 °F 32.0 °F 66% 29.46 in 10.0 mi NNE 6.9 mph 19.6 mph N/A   Overcast
3:56 AM 44.6 °F 38.4 °F 32.0 °F 61% 29.46 in 10.0 mi NE 12.7 mph 19.6 mph N/A   Overcast
4:16 AM 44.6 °F 38.8 °F 32.0 °F 61% 29.45 in 10.0 mi NE 11.5 mph 16.1 mph N/A   Overcast
4:36 AM 44.6 °F 39.2 °F 32.0 °F 61% 29.44 in 10.0 mi NNE 10.4 mph - N/A   Mostly Cloudy
4:56 AM 44.6 °F 38.8 °F 32.0 °F 61% 29.43 in 10.0 mi NNE 11.5 mph 16.1 mph N/A   Overcast
5:16 AM 44.6 °F 40.2 °F 32.0 °F 61% 29.42 in 10.0 mi NE 8.1 mph 17.3 mph N/A   Overcast
5:36 AM 44.6 °F 38.8 °F 32.0 °F 61% 29.42 in 10.0 mi NNE 11.5 mph 16.1 mph N/A   Overcast
5:56 AM 44.6 °F 40.2 °F 32.0 °F 61% 29.41 in 10.0 mi NNE 8.1 mph - N/A   Overcast
6:16 AM 44.6 °F 39.2 °F 32.0 °F 61% 29.41 in 10.0 mi NNE 10.4 mph - N/A   Overcast
6:36 AM 44.6 °F 40.7 °F 30.2 °F 57% 29.41 in 10.0 mi NNE 6.9 mph - N/A   Overcast
6:56 AM 44.6 °F 38.4 °F 32.0 °F 61% 29.40 in 10.0 mi NNE 12.7 mph 20.7 mph N/A   Overcast
7:16 AM 46.4 °F 41.9 °F 30.2 °F 53% 29.39 in 10.0 mi NNE 9.2 mph 18.4 mph N/A   Overcast
7:36 AM 46.4 °F 43.5 °F 32.0 °F 57% 29.39 in 10.0 mi NNE 5.8 mph 16.1 mph N/A   Overcast
7:56 AM 46.4 °F 40.7 °F 30.2 °F 53% 29.38 in 10.0 mi NNE 12.7 mph 19.6 mph N/A   Overcast
8:16 AM 46.4 °F 42.4 °F 30.2 °F 53% 29.40 in 10.0 mi NNE 8.1 mph 19.6 mph N/A   Overcast
8:36 AM 44.6 °F 42.2 °F 33.8 °F 66% 29.40 in 10.0 mi NNE 4.6 mph - N/A   Overcast
8:56 AM 44.6 °F 39.2 °F 33.8 °F 66% 29.40 in 10.0 mi NNE 10.4 mph - N/A   Overcast
9:16 AM 44.6 °F 40.7 °F 33.8 °F 66% 29.40 in 10.0 mi NNE 6.9 mph 20.7 mph N/A   Overcast
9:36 AM 44.6 °F - 33.8 °F 66% 29.41 in 10.0 mi Calm Calm - N/A   Overcast
9:56 AM 44.6 °F 43.1 °F 33.8 °F 66% 29.41 in 10.0 mi NE 3.5 mph - N/A   Overcast
10:16 AM 44.6 °F 38.1 °F 33.8 °F 66% 29.40 in 10.0 mi NNE 13.8 mph 20.7 mph N/A   Overcast
10:36 AM 44.6 °F 40.7 °F 33.8 °F 66% 29.40 in 10.0 mi NNE 6.9 mph - N/A   Overcast
10:56 AM 46.4 °F 43.5 °F 33.8 °F 62% 29.40 in 10.0 mi NNE 5.8 mph - N/A   Overcast
11:16 AM 46.4 °F 41.5 °F 33.8 °F 62% 29.40 in 10.0 mi NNE 10.4 mph 16.1 mph N/A   Overcast
11:36 AM 46.4 °F 44.3 °F 33.8 °F 62% 29.39 in 10.0 mi North 4.6 mph 16.1 mph N/A   Overcast
11:56 AM 46.4 °F 42.9 °F 32.0 °F 57% 29.39 in 10.0 mi NNE 6.9 mph 21.9 mph N/A   Overcast
12:16 PM 46.4 °F 42.4 °F 32.0 °F 57% 29.38 in 10.0 mi NNE 8.1 mph - N/A   Overcast
12:36 PM 44.6 °F 41.4 °F 33.8 °F 66% 29.37 in 10.0 mi NE 5.8 mph 16.1 mph N/A   Overcast
12:56 PM 46.4 °F 41.9 °F 33.8 °F 62% 29.37 in 10.0 mi NE 9.2 mph - N/A   Overcast
1:16 PM 44.6 °F 43.1 °F 35.6 °F 71% 29.37 in 10.0 mi ENE 3.5 mph - N/A   Overcast
1:36 PM 44.6 °F 38.8 °F 35.6 °F 71% 29.37 in 10.0 mi NNE 11.5 mph 17.3 mph N/A   Overcast
1:56 PM 42.8 °F 39.3 °F 35.6 °F 76% 29.37 in 10.0 mi NNE 5.8 mph - N/A   Overcast
2:16 PM 42.8 °F 36.6 °F 35.6 °F 76% 29.38 in 10.0 mi NNE 11.5 mph - N/A   Overcast
2:36 PM 42.8 °F 38.6 °F 35.6 °F 76% 29.38 in 10.0 mi NNE 6.9 mph 19.6 mph N/A   Overcast
2:56 PM 42.8 °F 38.6 °F 35.6 °F 76% 29.37 in 10.0 mi NNE 6.9 mph - N/A   Mostly Cloudy
3:16 PM 44.6 °F 40.7 °F 35.6 °F 71% 29.37 in 10.0 mi NNE 6.9 mph - N/A   Mostly Cloudy
3:36 PM 44.6 °F 41.4 °F 35.6 °F 71% 29.36 in 10.0 mi NNE 5.8 mph - N/A   Mostly Cloudy
3:56 PM 44.6 °F 40.7 °F 33.8 °F 66% 29.35 in 10.0 mi NNE 6.9 mph - N/A   Overcast
4:16 PM 46.4 °F 42.9 °F 33.8 °F 62% 29.36 in 10.0 mi NNE 6.9 mph - N/A   Overcast
4:36 PM 46.4 °F 45.2 °F 33.8 °F 62% 29.36 in 10.0 mi NNE 3.5 mph - N/A   Overcast
4:56 PM 46.4 °F 42.4 °F 33.8 °F 62% 29.36 in 10.0 mi NE 8.1 mph 17.3 mph N/A   Overcast
5:16 PM 46.4 °F 42.4 °F 33.8 °F 62% 29.35 in 10.0 mi NE 8.1 mph - N/A   Overcast
5:36 PM 46.4 °F 42.4 °F 33.8 °F 62% 29.35 in 10.0 mi NNE 8.1 mph - N/A   Overcast
5:56 PM 46.4 °F 41.9 °F 33.8 °F 62% 29.35 in 10.0 mi North 9.2 mph 18.4 mph N/A   Overcast
6:16 PM 46.4 °F - 32.0 °F 57% 29.35 in 10.0 mi Calm Calm - N/A   Overcast
6:36 PM 46.4 °F 42.4 °F 33.8 °F 62% 29.35 in 10.0 mi NNE 8.1 mph - N/A   Overcast
6:56 PM 46.4 °F 43.5 °F 33.8 °F 62% 29.35 in 10.0 mi WNW 5.8 mph 16.1 mph N/A   Overcast
7:16 PM 44.6 °F - 33.8 °F 66% 29.36 in 10.0 mi Calm Calm - N/A   Overcast
7:36 PM 44.6 °F 42.2 °F 35.6 °F 71% 29.36 in 10.0 mi NNE 4.6 mph - N/A   Overcast
7:56 PM 42.8 °F - 37.4 °F 81% 29.36 in 10.0 mi Calm Calm - N/A   Overcast
8:16 PM 42.8 °F 38.6 °F 35.6 °F 76% 29.37 in 10.0 mi NNE 6.9 mph 16.1 mph N/A   Overcast
8:36 PM 42.8 °F - 35.6 °F 76% 29.37 in 10.0 mi Calm Calm - N/A   Overcast
8:56 PM 42.8 °F - 35.6 °F 76% 29.37 in 10.0 mi Calm Calm - N/A   Overcast
9:16 PM 42.8 °F 40.1 °F 35.6 °F 76% 29.37 in 10.0 mi NE 4.6 mph - N/A   Overcast
9:36 PM 42.8 °F 38.6 °F 35.6 °F 76% 29.37 in 10.0 mi NNE 6.9 mph - N/A   Overcast
9:56 PM 42.8 °F 39.3 °F 33.8 °F 70% 29.37 in 10.0 mi NE 5.8 mph - N/A   Overcast
10:16 PM 44.6 °F 41.4 °F 33.8 °F 66% 29.38 in 10.0 mi NNE 5.8 mph - N/A   Overcast
10:36 PM 44.6 °F 40.2 °F 33.8 °F 66% 29.38 in 10.0 mi NNE 8.1 mph 16.1 mph N/A   Overcast
10:56 PM 44.6 °F 39.7 °F 33.8 °F 66% 29.38 in 10.0 mi NNE 9.2 mph 16.1 mph N/A   Overcast
11:16 PM 44.6 °F - 33.8 °F 66% 29.39 in 10.0 mi Calm Calm - N/A   Overcast
11:36 PM 42.8 °F - 33.8 °F 70% 29.39 in 10.0 mi Calm Calm - N/A   Overcast
11:56 PM 42.8 °F - 35.6 °F 76% 29.39 in 10.0 mi Calm Calm - N/A   Overcast